Home   Weather   Beaumont   Past weeks
Flag for USA

Past Weather in Beaumont, Texas, USA — Yesterday and Last 2 Weeks

Now
77 °F

Strong thunderstorms. Fog.


Feels Like: 78 °F
Forecast: 81 / 76 °F
Wind: 10 mph from West

Location: Jefferson County Airport

Current Time: Sep 19, 2019 at 7:45:33 am

Latest Report: Sep 19, 2019 at 7:13 am


Visibility: 1 mi

Pressure: 29.86 "Hg

Humidity: 96%

Dew Point: 76 °F

Location of BeaumontLocation

Past Weather in Beaumont — Graph

°F

Beaumont Temperature Yesterday

Maximum temperature yesterday: 83 °F (at 3:53 am)
Minimum temperature yesterday: 76 °F (at 6:37 am)
Average temperature yesterday: 78 °F

High & Low Weather Summary for the Past Weeks

 TemperatureHumidityPressure
High98 °F (Sep 5, 2:53 pm)100% (Sep 8, 1:53 am)30.14 "Hg (Sep 8, 1:53 am)
Low72 °F (Sep 8, 4:53 am)37% (Sep 13, 3:53 pm)29.82 "Hg (Sep 19, 5:22 am)
Average83 °F78%29.99 "Hg
* Reported Sep 4 7:53 am — Sep 19 7:00 am, Beaumont. Weather by CustomWeather, © 2019

Note: Actual official high and low records may vary slightly from our data, if they occured in-between our weather recording intervals... More about our weather records

Advertising

Beaumont Weather History for the Previous 24 Hours

Scroll right to see more
 ConditionsComfort  
Time TempWeatherWind HumidityBarometerVisibility
7:00 am
Thu, Sep 19
77 °FStrong thunderstorms. Fog.14 mph94%29.87 "Hg1 mi
6:32 am76 °FStrong thunderstorms. Fog.22 mph94%29.87 "Hg1 mi
6:17 am79 °FStrong thunderstorms. Fog.12 mph94%29.87 "Hg1 mi
6:00 am78 °FStrong thunderstorms. Fog.10 mph93%29.85 "Hg1 mi
5:33 am77 °FStrong thunderstorms. Fog.8 mph90%29.84 "Hg1 mi
5:22 am74 °FStrong thunderstorms. Fog.7 mph94%29.82 "Hg1 mi
4:58 am79 °FHeavy rain. Fog.16 mph90%29.86 "Hg3 mi
4:39 am81 °FHeavy rain. Fog.16 mph94%29.85 "Hg2 mi
3:53 am76 °FStrong thunderstorms. Fog.9 mph94%29.85 "Hg5 mi
3:28 am76 °FStrong thunderstorms. Fog.9 mph97%29.84 "Hg1 mi
2:53 am76 °FThunderstorms. Fog.6 mph97%29.84 "Hg6 mi
2:31 am75 °FStrong thunderstorms. Fog.6 mph96%29.85 "Hg1 mi
2:16 am76 °FStrong thunderstorms. Fog.3 mph97%29.85 "Hg1 mi
2:04 am76 °FStrong thunderstorms. Fog.9 mph97%29.86 "Hg1 mi
1:35 am81 °FStrong thunderstorms. Fog.13 mph94%29.85 "Hg3 mi
1:02 am78 °FStrong thunderstorms. Fog.3 mph93%29.86 "Hg4 mi
12:31 am77 °FHeavy rain. Fog.3 mph94%29.87 "Hg4 mi
12:11 am77 °FStrong thunderstorms. Fog.7 mph94%29.87 "Hg5 mi
12:04 am77 °FStrong thunderstorms. Fog.No wind94%29.87 "Hg2 mi
11:57 pm
Wed, Sep 18
78 °FStrong thunderstorms. Fog.7 mph93%29.88 "Hg2 mi
11:27 pm76 °FStrong thunderstorms. Fog.9 mph94%29.88 "Hg3 mi
11:18 pm76 °FStrong thunderstorms. Fog.No wind94%29.88 "Hg3 mi
11:01 pm76 °FHeavy rain. Fog.8 mph94%29.89 "Hg1 mi
10:32 pm79 °FStrong thunderstorms. Fog.17 mph94%29.87 "Hg1 mi
10:20 pm79 °FStrong thunderstorms. Fog.17 mph94%29.89 "Hg1 mi
9:53 pm79 °FStrong thunderstorms. Fog.14 mph94%29.87 "Hg2 mi
9:24 pm80 °FStrong thunderstorms. Fog.16 mph94%29.88 "Hg2 mi
8:53 pm80 °FThunderstorms. Fog.16 mph90%29.87 "Hg6 mi
8:33 pm79 °FThunderstorms. Partly cloudy.14 mph90%29.87 "Hg8 mi
7:53 pm79 °FLight rain. Passing clouds.14 mph90%29.87 "Hg10 mi
6:53 pm79 °FRain. Fog.12 mph94%29.86 "Hg4 mi
6:07 pm78 °FRain. Fog.12 mph93%29.88 "Hg4 mi
5:57 pm78 °FHeavy rain. Fog.10 mph93%29.87 "Hg2 mi
5:33 pm77 °FLight rain. Mostly cloudy.13 mph94%29.87 "Hg7 mi
5:23 pm77 °FHeavy rain. Fog.17 mph94%29.86 "Hg2 mi
4:53 pm77 °FHeavy rain. Fog.8 mph94%29.87 "Hg1 mi
3:56 pm76 °FHeavy rain. Fog.5 mph94%29.89 "Hg1 mi
2:53 pm77 °FLight rain. Mostly cloudy.14 mph94%29.90 "Hg8 mi
2:20 pm76 °FRain. Fog.13 mph94%29.91 "Hg4 mi
2:00 pm76 °FHeavy rain. Fog.10 mph94%29.93 "Hg1 mi
12:53 pm76 °FHeavy rain. Fog.10 mph94%29.94 "Hg2 mi
12:37 pm76 °FHeavy rain. Fog.10 mph94%29.94 "Hg3 mi
12:23 pm76 °FHeavy rain. Fog.9 mph94%29.95 "Hg2 mi
11:53 am76 °FLight rain. Mostly cloudy.9 mph91%29.94 "Hg10 mi
10:53 am77 °FRain. Fog.10 mph94%29.92 "Hg4 mi
9:53 am76 °FHeavy rain. Fog.6 mph97%29.91 "Hg4 mi
9:21 am76 °FHeavy rain. Fog.7 mph94%29.92 "Hg3 mi
8:23 am76 °FHeavy rain. Mostly cloudy.8 mph94%29.91 "Hg4 mi
7:53 am76 °FHeavy rain. Mostly cloudy.14 mph97%29.90 "Hg4 mi
7:21 am76 °FThundershowers. Cloudy.13 mph97%29.88 "Hg5 mi
Weather by CustomWeather, © 2019

See weather overview